Вернуться в каталог

STARLINK-1413

АктивенСвязьVLEO
NORAD 45689·PAYLOAD·🇺🇸 United States

Запущен Jun 4, 2020 с Cape Canaveral Space Force Station

Loading…

Ближайшие Пролёты (ближайшие 24 часа)

TLE

СвежийSource: CelesTrak SupGP

Эпоха: Sep 15, 2026, 02:21 UTC

1 45689C 20035AJ  26258.09840278  .00001990  00000+0  44138-4 0  2583
2 45689  53.1529 242.4543 0002753  76.5079 288.9430 15.43147166    17

Отслеживайте STARLINK-1413 в реальном времени с AllMySat

Download on the App Store